Theta_e
302 302 302 302 302 303 302 301 298 296 293 292 290 291 291 292 294 295 294 294 295 294 291 289 286 285 284 283 283 282 281 281 277 276 279 280 280 280 281 281 281 281 281
301 301 300 301 301 300 299 297 295 293 290 289 288 287 288 289 290 291 290 291 291 288 287 286 284 285 283 282 282 280 280 280 280 276 277 278 278 281 281 280 280 280 280
300 299 299 298 298 298 297 295 292 289 287 286 286 287 286 287 288 290 289 288 289 287 286 285 284 283 281 281 281 280 279 280 280 279 277 278 279 279 279 279 279 279 281
299 298 297 297 297 296 295 292 289 287 285 284 285 285 284 285 285 285 285 285 284 284 284 283 282 282 281 280 280 279 279 279 279 278 278 277 278 279 278 277 278 279 279
298 297 297 296 296 295 291 288 286 285 285 284 284 283 283 283 283 284 284 284 283 283 283 283 282 282 283 282 280 279 279 278 279 279 278 277 277 277 277 278 277 278 279
297 296 295 293 292 290 288 286 285 284 283 283 283 282 282 282 286 287 284 283 283 282 281 281 282 282 284 285 284 284 282 280 278 279 279 278 278 278 278 278 278 276 274
292 291 290 290 289 288 286 285 284 283 282 282 282 281 281 281 287 287 285 283 282 282 281 281 281 281 281 282 285 285 284 285 284 282 279 279 278 279 279 279 278 277 275
288 287 287 287 287 286 285 284 282 282 281 282 282 282 281 281 287 287 285 282 282 282 281 281 280 280 281 281 281 281 280 281 282 281 280 280 281 281 280 279 277 276 276
286 286 285 285 284 284 283 282 282 282 283 282 282 281 281 281 287 287 284 282 281 281 281 281 281 280 283 284 281 280 280 280 284 285 284 284 284 284 283 279 276 273 273
286 286 285 284 284 283 282 281 279 283 283 282 281 281 281 282 287 287 284 282 280 279 280 281 282 282 285 285 280 279 277 278 278 279 280 281 282 281 282 279 276 270 270
283 282 282 282 280 281 280 278 278 280 281 280 280 280 281 282 285 287 285 282 281 279 279 280 283 286 287 286 283 279 279 281 281 279 278 278 279 278 277 277 277 273 267
280 279 277 276 280 279 278 276 277 279 280 279 279 278 280 282 285 287 287 284 283 279 279 281 282 286 286 287 285 283 284 284 280 279 278 277 276 275 275 274 274 273 273
276 275 276 276 278 279 278 276 275 274 275 275 276 277 278 279 283 287 286 285 285 282 282 282 284 286 287 287 286 285 283 283 280 277 275 274 273 272 272 270 271 270 270
274 275 276 278 275 275 278 277 278 276 277 277 276 277 277 278 281 284 284 284 284 284 285 284 285 286 286 284 282 284 277 276 275 274 272 270 269 266 264 266 263 264 261
277 277 278 277 277 277 277 277 279 278 281 279 278 278 277 277 280 284 285 283 283 284 282 283 282 280 275 275 274 273 271 271 270 270 267 264 266 266 265 264 263 259 257
277 278 279 281 280 279 279 279 284 284 285 285 284 281 277 281 283 285 286 286 286 286 282 280 276 275 274 272 271 270 270 269 269 267 263 264 264 263 261 261 262 256 255
281 280 279 279 279 279 278 278 277 280 284 284 285 285 284 284 284 285 286 286 287 286 281 279 277 276 274 272 271 269 268 267 266 264 262 262 262 261 260 258 259 258 255
283 282 281 280 279 279 279 278 279 278 278 277 282 283 284 284 285 285 285 286 283 284 280 280 278 276 275 273 270 267 265 264 260 261 261 259 258 257 255 255 257 253 253
280 280 280 280 280 280 279 279 279 279 277 276 276 278 278 283 284 285 285 282 281 279 275 275 273 271 269 268 267 264 263 260 259 261 260 258 256 253 251 253 255 256 254
275 278 279 278 279 278 278 277 277 276 275 275 275 273 272 276 273 270 270 273 272 271 270 269 268 267 264 262 260 260 259 259 261 260 256 255 254 254 253 252 251 252 250
273 273 276 276 276 276 276 276 275 275 275 275 271 273 276 268 270 268 267 267 268 266 263 261 257 257 257 258 258 258 260 259 256 255 254 254 254 253 252 255 252 250 250
271 271 271 271 272 273 273 273 273 273 273 271 267 267 273 265 262 260 258 256 255 255 255 257 255 256 257 260 261 260 259 258 256 256 256 254 253 252 251 251 250 251 250
268 267 266 265 265 266 266 267 268 268 267 264 262 263 264 262 261 257 256 253 253 252 251 253 253 255 255 255 255 258 258 258 258 258 257 256 254 253 250 250 250 250 249
266 265 264 264 265 264 263 261 261 263 263 263 262 263 263 261 260 257 255 254 256 254 254 255 254 255 254 252 252 252 253 254 256 257 256 255 255 255 253 249 249 251 252
263 263 262 261 261 262 262 261 261 260 260 260 259 258 258 259 259 258 258 257 256 256 255 254 253 253 254 253 253 253 254 260 253 255 254 255 255 254 254 252 251 251 249
260 259 259 260 260 260 259 259 258 257 256 256 256 255 255 255 255 254 253 252 252 252 251 253 254 254 254 254 254 256 257 260 257 257 255 255 254 254 252 252 252 250 249
Wind_Speed
6 6 6 6 6 6 6 6 6 5 7 7 7 7 8 9 9 9 8 9 12 11 9 12 11 7 6 3 4 3 2 3 6 2 3 4 4 5 4 4 4 4 4
6 6 7 6 6 7 6 6 6 6 5 7 7 7 8 9 9 10 10 10 12 13 12 12 12 10 9 7 5 5 5 3 5 7 3 3 3 4 5 4 3 3 4
6 7 6 7 7 7 6 6 6 7 6 6 6 8 8 9 9 9 9 8 8 9 10 11 9 9 6 5 6 6 4 4 4 5 4 2 2 2 2 1 4 4 3
7 7 7 8 7 7 7 7 7 7 7 7 6 6 6 7 7 7 7 8 8 7 8 8 9 8 9 8 6 7 5 5 4 5 3 3 2 3 3 2 2 2 3
8 8 10 7 7 7 7 7 7 7 6 7 7 6 6 6 5 7 7 8 10 10 10 11 10 9 12 11 8 7 7 4 4 3 2 3 3 2 3 3 3 3 3
8 10 7 7 7 7 7 8 8 7 7 7 8 8 8 6 15 16 11 10 11 11 10 8 10 12 12 14 14 14 9 6 4 3 3 2 3 3 3 2 2 1 3
8 7 7 7 7 7 6 6 7 7 6 7 8 9 9 8 19 20 18 10 12 13 13 12 9 6 9 9 15 15 10 9 5 5 4 3 3 4 3 2 3 3 5
6 5 6 7 7 7 8 8 5 5 6 7 7 7 8 8 21 22 20 11 10 10 13 14 14 12 11 12 11 8 7 5 4 3 4 4 2 2 3 4 4 3 4
6 7 6 6 6 6 7 7 5 7 6 7 7 8 8 7 20 21 17 10 10 10 9 11 11 12 18 19 10 9 7 5 7 10 6 6 9 11 9 2 2 1 5
6 7 6 6 8 9 8 7 4 6 7 6 7 8 9 10 21 22 16 7 9 8 8 10 15 11 21 20 10 9 7 7 6 4 3 6 7 4 4 2 3 1 0
3 1 2 3 4 5 5 3 6 6 7 7 7 6 8 10 15 24 22 9 8 8 9 8 7 17 20 21 15 9 8 8 10 6 5 4 3 3 3 2 3 3 2
2 2 4 3 3 4 6 3 5 7 8 8 8 6 3 6 14 21 19 14 16 11 10 8 8 16 15 18 14 14 15 11 6 5 5 3 4 3 4 3 3 1 1
2 3 2 3 3 5 6 5 5 4 3 4 5 5 5 2 5 16 21 17 18 7 7 12 17 18 18 14 15 16 13 7 6 4 4 3 3 4 4 3 4 3 2
3 2 3 3 3 3 3 3 5 4 6 5 5 5 5 5 6 7 8 10 14 8 13 10 12 11 11 10 7 9 4 4 5 4 3 3 3 3 2 2 2 1 1
3 3 3 3 4 4 3 2 2 2 4 5 5 6 7 7 7 12 12 8 8 10 9 7 5 4 5 5 4 5 5 4 4 3 3 3 3 3 2 2 2 1 2
2 1 2 5 6 3 2 3 3 3 7 7 9 6 3 8 16 19 21 18 20 20 6 6 5 5 7 7 6 5 4 5 5 4 3 3 3 3 3 1 2 3 3
3 3 3 2 5 7 3 3 3 1 4 4 3 8 11 8 16 20 21 20 20 20 7 7 7 7 6 6 6 5 5 4 4 4 3 4 4 3 4 2 2 3 2
4 7 3 2 2 4 3 3 3 3 3 3 7 3 6 5 12 16 17 16 9 13 6 7 6 6 6 6 6 4 4 5 3 4 4 4 4 4 3 3 3 3 2
3 3 4 2 2 5 4 3 3 3 4 3 1 4 4 4 3 7 16 6 5 3 3 4 5 5 4 5 5 5 6 5 4 6 5 5 5 4 3 3 3 4 4
2 7 5 4 4 5 4 3 4 4 3 3 2 0 2 2 3 3 4 4 6 5 4 5 4 4 5 5 5 6 5 5 7 6 4 5 5 4 4 4 4 3 3
2 3 5 4 4 5 3 3 3 3 3 3 3 1 4 3 4 3 2 3 4 4 3 3 3 3 4 4 4 4 5 5 4 4 4 4 5 4 4 4 4 4 4
5 4 3 4 5 5 4 3 2 2 2 4 2 2 7 4 4 3 3 2 2 3 3 4 3 3 4 5 6 6 6 6 5 5 5 5 5 4 4 3 3 3 3
4 5 6 5 4 5 5 4 4 3 3 4 2 2 3 3 3 3 3 2 2 2 2 3 3 2 1 2 2 4 6 6 6 6 6 6 5 4 4 3 4 4 3
7 8 6 5 5 5 4 3 3 4 3 3 3 3 4 3 3 3 3 2 2 2 2 2 2 4 3 2 2 2 3 3 4 6 7 6 6 6 4 3 3 4 3
7 6 6 5 4 4 4 3 3 3 3 3 3 3 2 2 3 2 2 2 3 3 3 3 3 5 7 7 6 6 5 7 5 6 5 6 7 8 6 4 4 4 5
6 4 4 3 4 3 3 3 3 3 3 2 2 2 2 1 2 3 3 3 3 3 4 4 6 8 8 7 8 8 9 11 9 9 6 6 6 6 5 6 7 3 4
Wind_Direction
213 200 205 217 206 203 207 199 171 137 146 159 167 167 171 176 181 185 181 181 187 180 168 169 164 151 155 168 153 110 112 108 123 87 103 135 140 158 179 196 218 220 237
216 211 222 206 198 197 200 180 154 156 159 165 166 169 174 179 179 185 176 180 178 176 164 163 162 154 158 158 146 137 138 107 121 127 111 121 151 186 190 179 224 234 235
198 208 224 221 200 196 186 169 155 152 166 168 170 182 178 179 177 186 181 171 169 168 168 166 161 147 138 148 135 133 121 93 98 131 129 109 106 197 134 233 240 257 242
194 207 213 222 207 190 179 170 164 161 164 172 181 179 176 170 175 160 154 145 136 131 125 126 131 140 140 143 131 124 112 106 95 105 84 124 164 154 135 202 274 237 265
202 203 218 211 202 185 177 165 164 172 172 167 163 160 155 159 159 153 147 141 144 140 143 143 141 134 159 159 145 137 122 99 102 88 111 135 176 137 177 187 199 256 272
206 218 207 207 196 191 172 166 164 168 168 161 170 167 165 166 179 179 159 152 151 142 135 129 131 130 142 136 137 137 137 136 122 133 157 177 185 171 174 184 194 233 298
209 212 209 201 192 187 162 162 178 181 165 172 168 164 170 163 178 175 164 156 155 156 151 144 134 153 139 131 134 136 122 126 128 156 176 166 170 179 162 195 207 215 250
230 208 199 198 186 166 163 174 158 156 174 171 170 169 164 172 180 180 166 155 148 154 155 154 157 156 150 143 130 132 145 163 183 187 186 173 179 182 190 193 210 237 273
228 214 203 186 174 165 172 166 159 153 169 172 163 161 162 173 184 181 163 152 149 152 149 149 155 156 158 146 150 153 160 169 204 217 204 230 240 245 240 174 222 237 287
235 228 206 180 173 175 170 161 143 152 154 145 149 163 163 167 182 183 169 155 150 148 150 153 166 162 161 165 156 161 166 186 169 202 217 243 250 243 255 140 139 147 345
269 227 127 152 162 159 145 130 135 143 143 147 149 160 170 180 186 186 176 172 170 161 165 159 161 166 171 175 172 169 183 165 201 184 198 210 185 174 151 112 95 122 155
61 94 116 125 123 125 123 101 125 139 145 147 140 143 163 180 181 187 180 173 172 168 166 158 158 173 171 191 181 187 196 191 176 186 197 166 154 150 123 119 114 116 167
103 116 95 80 105 128 127 130 124 110 130 139 143 147 159 157 174 187 178 179 180 162 146 168 174 184 194 193 194 204 210 202 182 165 151 149 117 128 116 88 70 52 38
119 82 71 97 86 78 103 128 139 148 153 151 150 157 152 167 186 186 171 177 181 155 171 177 179 186 188 173 185 200 137 146 158 155 139 125 122 105 110 130 123 84 68
107 127 111 103 88 71 58 120 118 159 158 156 164 157 160 179 196 184 177 166 169 171 151 167 172 152 131 131 132 130 127 132 133 133 139 140 127 115 122 106 119 85 159
122 102 143 147 120 109 125 75 100 167 170 171 175 160 141 181 189 192 189 181 176 175 167 171 167 166 174 168 164 153 148 158 157 138 131 134 140 142 146 125 133 147 187
124 109 89 294 133 128 118 113 121 36 147 133 161 181 175 187 188 196 193 192 189 185 184 182 183 182 177 173 171 167 165 164 138 142 136 142 137 146 141 172 178 179 237
144 144 137 165 167 111 123 135 123 136 113 61 31 93 167 177 186 190 194 191 197 184 195 187 191 171 174 170 160 151 141 144 132 135 138 154 157 151 150 173 188 180 198
119 109 122 126 108 104 102 103 109 108 98 94 56 50 15 176 187 178 192 198 187 203 106 120 123 129 140 149 152 143 149 159 156 166 172 167 163 146 174 181 182 188 192
70 90 106 116 110 94 82 93 97 101 99 111 101 121 1 54 59 47 46 90 105 110 114 125 131 141 146 153 151 147 146 156 173 180 170 163 166 165 172 179 178 184 216
57 59 94 86 87 85 95 95 95 115 132 123 91 98 49 97 112 105 98 69 115 134 141 139 139 147 144 144 142 146 165 175 167 161 165 172 170 181 179 177 180 195 196
35 34 49 76 72 78 81 88 90 89 94 105 109 340 90 76 90 101 92 97 89 120 141 138 147 164 160 164 169 172 179 182 175 174 180 174 172 175 173 170 189 189 196
109 88 63 62 67 68 59 48 50 69 81 92 101 65 67 81 90 88 103 105 92 91 52 101 136 147 149 152 156 166 179 190 186 170 176 180 179 180 177 185 189 205 198
65 73 73 66 70 68 75 77 63 57 66 83 86 85 87 99 113 115 127 138 129 128 121 117 129 165 166 173 147 137 138 156 157 176 168 176 189 196 189 180 182 197 202
50 57 59 59 68 73 83 79 75 72 67 63 60 63 79 89 97 121 150 159 166 172 181 183 190 189 194 191 192 194 192 188 167 166 161 171 184 186 194 190 189 199 197
47 42 43 52 63 58 61 67 64 62 72 80 82 74 105 152 200 200 198 189 192 204 205 200 206 208 205 210 209 203 201 204 195 191 178 186 192 199 195 201 202 194 195